Regional Weather Roundup
Issued by NWS Newport/Morehead, NC

Current Version | Previous Version | Text Only | Print | Product List | Glossary On
Versions: 1 2 3 4 5 6 7 8 9 10 11 12 13 14 15 16 17 18 19 20 21 22 23 24 25 26 27 28 29 30 31 32 33 34 35 36 37 38 39 40 41 42 43 44 45 46 47 48 49 50
000
ASUS42 KMHX 052112
RWRMHX
WEATHER ROUNDUP FOR EASTERN NORTH CAROLINA
NATIONAL WEATHER SERVICE NEWPORT/MOREHEAD CITY NC
500 PM EDT TUE MAY 05 2015

NOTE: "FAIR" INDICATES FEW OR NO CLOUDS BELOW 12,000 FEET
WITH NO SIGNIFICANT WEATHER AND/OR OBSTRUCTIONS TO VISIBILITY

NCZ015>017-031-032-045>047-102-103-052200-
NORTH COAST

CITY           SKY/WX    TMP DP  RH WIND       PRES   REMARKS
EDENTON        MOSUNNY   78  51  38 S15       30.27F
ELIZABETH CITY MOSUNNY   79  50  36 S13       30.27F
KITTY HAWK     PTCLDY    75  50  41 S9G18     30.28F
MANTEO         MOSUNNY   73  55  53 S16       30.30F

$$

NCZ045>047-081-094-103-104-052200-
CENTRAL COAST

CITY           SKY/WX    TMP DP  RH WIND       PRES   REMARKS
FRISCO         PTSUNNY   72  55  55 S9        30.30F
SWANQUARTER      N/A     75 N/A N/A S8G16     30.27S

$$

NCZ095-097-098-100-101-052200-
SOUTHERN COAST

CITY           SKY/WX    TMP DP  RH WIND       PRES   REMARKS
BEAUFORT       PTSUNNY   73  51  46 S12       30.30F
CEDAR ISLAND     N/A     75 N/A N/A SE16      30.33F
JACKSONVILLE   PTSUNNY   75  50  41 SE10      30.30S
PINEY ISLAND   PTCLDY   N/A N/A N/A SE15      30.29F
WILMINGTON     PTSUNNY   73  53  49 SE12      30.30F


$$

NCZ011>013-027>030-043-044-078>080-089-090>093-098-052200-
COASTAL PLAIN

CITY           SKY/WX    TMP DP  RH WIND       PRES   REMARKS
AHOSKIE        MOSUNNY   79  54  41 S8        30.25F
CLINTON        SUNNY     80  55  41 SE5       30.27S
ELIZABETHTOWN  MOSUNNY   80  49  33 SE9       30.26F
GOLDSBORO      SUNNY     82  52  35 S12       30.24F
GREENVILLE     SUNNY     82  52  34 S9        30.26F
HAVELOCK       PTSUNNY   74  49  41 S13       30.30F
KENANSVILLE    MOSUNNY   78  45  30 SE8       30.28F
KINSTON        SUNNY     81  45  28 S15       30.27F
NEW BERN       MOSUNNY   78  49  35 SE12      30.29F
RICHLANDS      MOSUNNY   77  48  36 SE8       30.30S
ROCKY MOUNT    SUNNY     81  54  39 S9G20     30.25F
WASHINGTON     SUNNY     80  48  32 S9        30.27F
WHITEVILLE     MOSUNNY   78  55  44 SE9       30.26F

$$

AMZ130-135-150-152-154-156-158-170-250-252-270-ANZ085-086-088-633-658-670-052200-
MARINE OBSERVATIONS

STATION/POSITION TIME  TEMP    WIND        PRES    WAVE   SWELL
                       AIR SEA DIR/SP/G            HT/PER HT/PER
                 (UTC) (F)     (DEG/KT/KT) (MB)    (FT/S) (FT/S)
CHESAPEAKE LIGHT 2000   67     170/ 24/ 25 1024.5
64 E VA BEACH    2050   64 59  200/ 12/ 14 1025.2    2/11   2/11
DUCK             2000   75 56  190/ 16/ 22 1024.4
2 E DUCK         2011      60                N/A     2/11   2/11
OREGON INLET     2000   72 71  180/ 14/ 18 1026.2
13E OREGON INLT  2100      65                N/A     2/11   2/11
HATTERAS CG      2000   74 67  160/  7/ 10 1026.5
DIAMOND BUOY     2050   73 77  150/ 14/ 19 1026.2    3/ 8   2/ 8
CAPE LOOKOUT     2100   70     150/  8/  9 1025.9
BEAUFORT LAB     2000   73 68  180/  9/ 12 1025.4
27 SE WRIGHTSVLE 2000   69 71  140/ 10/ 12   N/A
5 SE WRIGHTSVLE  NOT AVBL
225 S CAPE HAT   2050   70 70  100/ 16/ 19 1025.3    5/ 7   2/ 9
41 SE CHARLESTON 2050   72 73   60/ 16/ 17 1024.0    3/ 6   2/ 8

$$



USA.gov is the U.S. government's official web portal to all federal, state and local government web resources and services.